Voltar ao catálogo

STARLINK-34942

AtivoComunicaçõesSSO
NORAD 65181·PAYLOAD·🇺🇸 United States

Lançado Aug 14, 2025 de Vandenberg Space Force Base

Loading…

Próximas Passagens (próximas 24 horas)

TLE

AtualizadoSource: CelesTrak SupGP

Época: Sep 14, 2026, 21:26 UTC

1 65181C 25175H   26257.89354167  .00009536  00000+0  29609-3 0  2574
2 65181  97.2845 127.0237 0001592  89.5105  87.7294 15.33425790    12

Acompanhe STARLINK-34942 em tempo real com AllMySat

Download on the App Store